Lid_Strength_Index
-2 -2 -2 -2 -1 -1 0 1 1 2 2 2 1 2 3 4 5 7 8 5 6 10 10 9 8 10 11 11 14 14 14 14 15 15 14 15 15 16 20 18 20 19 18 19 18 18 19 15 16 15 13 16 16 16
-2 -1 -1 -1 -1 -1 -1 1 1 1 1 3 1 2 3 3 4 5 9 5 4 9 10 8 8 8 7 8 12 12 12 14 12 14 14 15 15 17 20 20 18 18 17 18 16 16 13 15 13 13 14 14 15 15
-1 -1 -1 -1 -1 -1 -1 0 1 1 1 2 1 1 3 3 3 4 8 7 7 12 11 10 10 7 7 7 7 13 13 11 12 10 13 14 14 15 17 17 20 18 16 18 17 15 15 14 14 15 14 14 14 15
-1 -1 -1 -1 -1 -1 -0 -0 1 1 1 1 0 2 3 3 3 4 7 4 6 10 13 12 8 9 7 7 7 8 9 9 10 10 13 14 14 15 18 16 16 17 16 19 19 15 15 14 14 13 13 14 14 15
-1 -1 -1 -1 -1 -1 -1 -1 0 0 1 -1 -0 2 2 3 4 5 6 5 4 8 12 13 11 10 8 7 7 8 8 10 12 13 14 14 14 14 17 18 20 17 18 16 17 13 13 11 13 13 13 13 14 14
-1 -1 -1 -1 -1 -1 -1 -1 1 0 1 -0 -0 1 2 3 3 7 14 6 4 5 11 18 13 12 10 7 7 8 8 10 11 12 14 14 13 14 17 16 15 15 16 13 13 14 13 15 16 16 14 14 14 14
-1 -1 -1 -1 -1 -1 -0 1 1 -0 -0 -1 -0 1 1 2 7 11 14 6 4 4 9 12 13 12 12 11 12 12 11 13 12 13 13 13 13 12 14 14 13 14 13 13 14 14 15 16 14 18 17 18 19 18
-1 -1 -1 -1 -1 -0 1 2 1 -0 -0 -1 -1 0 1 2 5 11 6 4 3 7 9 11 13 12 11 12 12 12 12 13 13 13 14 14 13 13 14 13 12 12 13 15 14 14 13 17 19 20 22 21 20 18
-1 -1 -1 -1 -1 0 2 1 -0 -0 -0 -1 -0 1 5 9 15 13 4 4 5 7 10 10 13 14 10 11 12 12 11 13 13 13 13 12 14 15 13 13 13 12 13 13 16 18 19 18 18 22 23 20 17 18
-0 -1 -0 0 0 -0 1 -0 0 -0 -0 1 5 10 12 14 4 5 10 11 10 8 9 11 14 12 9 11 11 12 12 13 15 13 12 13 13 14 15 15 16 17 18 18 18 18 21 24 23 23 25 22 19 21
1 -0 0 0 0 1 1 -0 -1 1 4 9 13 12 6 2 9 13 18 14 12 14 10 10 10 11 9 11 11 10 11 12 16 15 13 15 15 16 19 21 21 21 20 20 19 19 20 19 21 23 26 28 28 27
1 1 0 -0 -0 -0 -0 -0 1 6 10 9 8 5 7 8 11 18 18 16 12 18 11 11 10 11 9 9 10 10 11 12 15 11 13 19 18 21 21 23 24 23 22 23 22 22 22 23 24 26 29 30 30 29
1 1 -0 -0 -0 -0 1 1 1 1 4 10 14 16 17 17 18 21 22 17 16 15 10 9 10 9 9 8 9 10 12 13 10 13 14 17 23 24 24 24 25 24 24 25 26 25 24 26 27 28 28 29 29 29
1 1 1 -0 -1 0 0 0 1 4 10 16 19 20 21 20 22 20 16 17 13 14 11 10 9 9 8 9 9 15 13 11 14 15 18 21 28 26 26 26 25 26 25 26 26 26 26 26 29 30 30 31 30 30
2 1 2 2 -0 -1 -0 1 2 8 14 16 19 22 19 20 22 21 20 16 12 13 11 9 9 8 10 10 10 11 13 14 15 17 21 28 31 30 28 28 27 27 28 28 30 29 27 27 29 30 31 31 30 30
2 3 4 1 1 0 0 1 5 13 17 18 17 19 19 21 22 21 22 16 11 9 9 8 11 11 11 14 13 13 16 19 18 27 31 29 32 31 29 29 29 29 29 29 30 30 29 28 28 29 30 30 32 31
2 12 3 1 -0 0 1 5 9 14 18 16 17 20 23 23 18 20 20 15 11 11 11 10 12 13 14 15 16 22 21 24 27 29 29 31 31 30 30 30 30 31 29 29 29 28 29 30 28 28 28 30 30 28
9 6 1 1 3 5 9 11 10 16 16 14 20 21 23 23 22 22 21 16 14 12 13 11 12 13 14 16 18 19 27 29 30 28 27 28 27 28 26 27 28 28 29 29 30 30 29 27 27 27 27 28 28 27
3 3 0 1 6 12 14 14 15 17 18 21 22 21 22 22 22 20 21 16 16 14 14 12 14 18 16 19 22 24 23 26 27 27 28 29 27 26 26 25 26 27 27 29 27 26 26 26 25 24 23 23 25 25
1 1 1 1 6 16 19 18 18 19 19 19 21 20 21 21 22 24 22 20 16 13 13 13 16 19 20 20 25 24 23 23 24 26 26 26 26 26 25 25 25 25 25 25 27 26 26 25 25 24 23 23 24 26
6 4 4 7 12 17 20 23 21 22 23 22 23 18 20 21 22 22 21 19 16 13 14 22 26 29 29 30 30 26 22 21 26 26 26 26 26 24 25 26 26 26 27 27 29 29 28 30 28 26 25 25 24 24
15 5 8 8 12 17 20 22 18 18 17 19 19 19 20 21 21 20 22 17 16 22 27 25 26 27 28 29 33 32 27 24 23 22 22 23 25 25 24 24 24 25 25 26 27 29 29 29 25 24 25 26 26 27
10 13 16 13 13 17 21 23 18 18 16 16 18 19 19 19 21 21 18 17 23 28 29 28 29 30 30 31 31 31 29 24 24 24 24 25 26 26 25 26 25 26 27 27 26 25 25 25 23 25 26 28 28 28
12 19 20 20 20 22 26 27 26 22 20 19 18 20 20 21 23 19 16 17 25 29 31 30 29 29 28 28 31 32 32 27 28 29 29 25 26 31 28 29 30 30 28 28 27 27 28 28 26 27 28 30 32 32
13 18 21 23 27 24 27 27 30 27 24 27 23 22 22 27 20 22 21 21 27 29 31 31 32 30 28 32 32 34 36 33 25 27 33 31 29 30 32 33 34 34 34 29 30 30 35 33 31 30 31 30 30 33
18 24 24 26 27 22 23 23 25 26 32 30 30 34 34 27 21 19 20 24 28 29 29 28 27 31 34 36 32 35 33 39 32 30 34 31 26 25 28 29 31 32 37 36 32 32 34 34 32 32 33 33 31 32
19 22 30 29 29 29 30 32 32 29 27 24 32 32 29 23 23 22 29 29 28 32 32 30 29 30 30 36 39 41 40 38 33 32 32 36 37 36 30 28 32 31 34 34 34 31 30 31 32 32 33 37 37 33
27 27 25 29 29 31 27 34 31 27 29 37 31 25 23 22 22 29 31 34 38 40 40 41 41 39 35 39 36 35 36 35 31 29 29 31 37 37 38 37 34 26 32 33 32 32 31 30 31 31 31 32 36 38
33 33 33 32 34 36 35 32 31 37 39 37 29 30 30 33 35 37 37 39 42 37 33 33 39 38 35 37 39 42 31 28 29 32 33 34 34 31 36 35 30 32 32 31 25 29 31 31 31 31 32 31 35 34
37 38 35 38 32 31 37 41 40 43 42 39 38 36 35 35 35 39 38 39 37 38 39 38 40 36 34 31 35 36 39 41 37 30 29 31 29 31 31 33 33 36 35 31 28 27 19 25 26 32 30 30 30 31
42 41 37 38 35 39 41 42 43 42 40 39 39 36 33 32 31 33 32 32 32 31 32 34 34 33 31 31 30 33 33 35 38 38 38 38 39 30 28 30 32 34 34 31 29 27 29 33 31 32 32 32 32 31
38 38 38 34 38 43 43 41 41 38 38 37 36 38 34 33 29 32 34 32 29 29 28 29 29 30 29 29 28 27 27 27 29 32 35 36 38 37 33 33 34 33 30 28 29 29 31 32 32 31 31 32 32 33
49 49 49 45 41 40 45 45 42 42 44 45 45 53 48 42 32 35 37 39 34 31 31 30 31 30 31 32 33 35 34 36 33 25 28 28 31 32 34 34 33 31 29 29 30 31 32 33 34 37 36 37 38 38